Temperature
8 8 8 8 9 9 8 8 9 9 10 10 9 8 10 11 11 11 12 14 15 15 16 16 16 16 16 16 17 17 17 17 17 17 17 17 17 16 16 16 16 16 16 15
8 8 9 9 9 9 9 8 9 9 9 9 7 8 9 9 10 11 12 12 13 14 15 15 15 16 16 16 16 16 17 17 17 17 17 17 17 17 17 17 17 16 16 16
8 8 9 9 9 9 9 9 9 9 8 7 7 8 9 9 9 10 11 11 11 12 13 14 15 15 15 15 16 16 16 16 16 16 16 16 16 16 16 16 16 16 16 16
8 8 9 9 9 9 9 9 9 8 8 6 7 7 8 8 8 9 10 10 11 12 13 14 14 15 15 15 15 16 16 16 16 16 16 16 15 15 16 16 16 16 16 16
7 8 8 9 8 9 8 8 7 7 6 6 6 6 8 7 10 9 9 10 10 11 12 13 13 14 14 14 15 15 15 16 16 16 16 16 15 15 16 16 16 16 16 16
8 8 8 8 8 8 7 7 6 5 5 6 6 5 7 7 9 8 8 10 10 11 12 12 13 13 13 14 14 14 15 15 15 15 15 15 15 15 15 15 15 15 15 15
7 8 8 8 7 7 7 6 6 6 5 5 5 4 6 7 8 8 8 9 10 11 11 11 12 12 12 13 13 13 14 14 14 15 15 15 15 15 15 15 15 15 15 15
6 6 8 8 7 7 7 7 6 7 6 5 5 4 6 7 8 9 9 10 10 11 11 10 10 11 11 11 12 12 12 13 13 14 14 14 14 14 15 15 15 15 15 15
6 6 7 8 7 7 6 5 6 4 4 4 5 5 5 8 8 8 9 10 10 10 10 10 10 10 10 10 10 11 11 12 12 13 13 14 14 14 14 14 14 14 14 14
6 6 7 8 8 7 6 5 4 4 5 6 6 6 6 9 9 8 7 9 9 9 9 9 9 9 9 9 9 10 10 10 11 12 12 13 13 13 13 13 13 13 13 13
6 5 6 7 7 6 6 5 4 3 4 5 7 8 7 8 9 8 7 9 9 9 8 8 8 8 8 8 8 9 9 10 10 11 11 12 12 12 12 12 12 12 11 11
6 5 5 6 6 6 6 5 4 4 3 3 3 6 8 7 7 7 8 9 9 8 7 7 7 7 7 8 8 8 8 9 9 10 10 11 11 11 11 11 10 10 9 9
6 4 4 5 5 5 6 5 4 4 3 2 3 6 7 7 7 8 9 8 8 7 6 6 6 6 7 7 7 7 8 8 8 9 9 9 9 10 9 9 9 8 8 8
6 5 4 5 5 4 4 4 4 4 3 2 3 4 6 7 7 8 9 8 7 6 5 5 5 5 6 6 6 6 7 7 7 8 8 8 8 8 8 8 8 7 8 8
7 5 5 5 6 5 5 5 4 4 3 3 4 4 6 7 8 8 8 7 5 5 4 4 4 5 5 5 5 5 6 6 6 6 7 7 7 7 7 7 7 7 6 6
6 5 5 5 5 5 5 5 5 4 5 4 5 6 7 8 8 8 7 5 4 3 3 3 3 4 4 4 4 4 5 5 5 5 5 5 5 6 6 6 5 5 5 4
5 5 5 4 5 5 4 5 5 5 5 5 6 7 8 8 8 7 6 4 3 2 2 2 2 2 3 3 3 3 3 3 4 4 4 4 4 4 4 4 3 3 2 2
4 4 4 5 5 5 6 8 6 6 6 6 7 8 8 8 8 7 5 4 3 2 1 1 1 2 2 2 2 2 2 2 3 3 2 2 2 3 2 2 1 1 1 0
5 5 5 5 5 5 6 7 7 7 7 8 7 8 8 8 6 5 5 4 3 2 1 1 1 1 1 1 1 1 1 1 1 1 1 1 1 1 1 0 0 -0 -0 -0
5 5 5 5 5 5 8 9 8 8 8 9 8 7 7 6 6 5 5 4 3 2 1 0 0 0 0 0 0 0 0 0 0 -0 -0 -0 -0 -0 -0 -0 -0 -0 -0 -0
5 5 5 6 6 5 7 8 8 8 9 9 9 8 7 6 6 5 4 3 3 2 1 0 -0 -0 -0 -0 -0 -0 -0 -1 -1 -1 -1 -1 -1 -0 -0 -0 -0 -0 -0 -0
5 5 6 6 5 6 8 7 8 8 9 9 8 8 7 6 6 5 4 3 3 2 1 1 0 -0 -0 -1 -1 -0 -0 -1 -1 -1 -1 -1 -1 -0 -0 -0 -0 -0 -1 -1
5 5 5 6 6 8 8 8 9 9 8 8 8 7 6 6 5 4 4 3 3 2 2 1 1 0 0 -0 -0 -0 -0 -1 -0 -0 -0 -0 -0 -0 -1 -1 -1 -1 -1 -1
5 5 5 5 5 7 8 9 9 9 8 8 7 7 6 6 5 4 4 3 3 2 2 1 1 1 1 0 0 0 -0 -0 -0 -0 -0 -1 -1 -1 -1 -1 -1 -2 -2 -2
5 5 5 5 6 7 8 8 8 8 8 8 7 7 6 6 5 5 4 3 3 2 2 2 2 1 1 1 0 0 -0 -0 -0 -0 -0 -1 -1 -1 -1 -1 -2 -2 -2 -3
4 4 5 5 6 6 7 8 8 7 7 7 7 6 6 5 5 4 4 3 3 3 2 2 2 2 1 1 0 0 -0 -0 -0 -0 -1 -1 -1 -1 -2 -2 -2 -3 -3 -4
Wind_Speed
6 6 9 10 8 5 7 6 4 3 3 3 6 10 15 11 9 11 12 12 12 12 10 8 9 9 8 8 9 10 11 12 11 10 13 13 14 13 12 13 16 18 18 19
5 6 6 8 9 7 6 5 2 2 4 3 6 11 13 10 8 9 10 11 11 11 11 8 7 7 8 8 9 9 11 11 11 12 12 10 11 10 13 11 11 17 18 18
6 3 8 8 9 8 4 4 3 1 4 4 7 9 8 5 4 6 6 7 7 8 10 9 8 7 6 7 8 8 10 11 11 11 8 5 5 4 7 9 12 13 17 18
3 2 6 9 7 7 5 3 5 3 3 4 5 6 9 5 8 5 6 7 7 7 7 8 8 8 7 7 6 7 8 9 10 10 9 11 12 13 13 12 13 13 15 16
3 3 6 7 6 7 5 5 6 4 4 2 1 3 9 5 4 6 8 8 8 8 7 8 8 8 8 7 6 5 6 7 8 9 11 12 14 13 9 9 11 12 12 13
4 2 3 4 4 7 9 7 6 5 4 2 3 5 7 4 3 7 8 9 9 9 9 9 9 8 8 8 8 6 6 7 7 8 9 12 14 13 10 10 12 11 9 10
4 3 3 5 7 5 5 5 2 3 2 5 2 3 9 6 5 5 7 8 9 8 9 11 12 12 12 12 11 9 8 8 7 7 8 11 13 14 15 14 14 12 10 10
6 3 2 3 5 6 5 6 5 4 3 4 1 6 8 6 7 5 3 5 7 9 9 10 10 10 10 11 11 10 10 10 9 7 8 9 10 9 10 12 11 12 12 12
6 3 2 3 4 8 6 4 4 5 2 3 5 7 9 3 1 3 6 8 10 10 10 10 10 10 10 11 11 10 11 11 10 9 8 8 9 9 9 9 9 8 7 6
6 6 3 3 6 5 5 7 5 5 4 4 6 5 4 4 3 6 9 11 12 12 11 11 11 11 11 10 10 10 9 10 10 9 7 6 6 6 6 5 7 6 6 7
4 6 4 3 4 6 5 5 5 4 3 4 3 6 5 6 2 6 9 10 11 11 11 11 11 11 11 11 10 10 10 10 9 8 6 4 2 1 2 3 5 6 7 9
4 5 4 1 2 4 5 6 6 5 4 3 3 7 5 5 4 6 9 10 9 9 9 9 10 11 11 12 11 10 10 9 8 6 3 1 1 3 4 5 6 8 9 10
5 6 5 1 2 0 3 5 5 5 5 5 4 7 4 2 7 8 9 10 8 8 9 9 10 10 11 11 10 10 9 9 8 4 2 3 4 5 6 6 7 9 10 11
5 4 5 7 4 6 5 6 7 6 5 5 8 10 11 12 13 13 12 9 7 8 9 9 10 10 10 9 9 9 10 9 7 5 6 6 6 6 7 8 8 9 10 11
5 4 3 3 2 4 6 7 9 9 9 9 8 8 14 14 14 13 8 7 8 9 10 10 11 10 10 9 9 9 9 9 8 8 9 8 8 9 10 11 11 12 12 13
4 4 2 1 1 5 6 9 11 11 10 11 12 14 16 11 8 7 6 6 7 8 9 10 10 9 9 8 8 8 9 9 8 10 10 9 10 12 12 13 13 14 14 14
4 5 2 2 3 2 7 10 13 8 8 9 13 13 11 11 11 7 5 5 6 7 8 8 8 8 7 7 6 7 7 8 10 10 11 11 11 13 13 14 14 14 14 14
7 5 3 1 2 5 6 3 8 9 9 12 11 12 11 10 7 3 1 2 4 5 6 7 6 6 6 6 7 7 8 9 10 10 10 10 11 12 13 13 13 13 11 12
5 5 3 1 3 7 7 3 6 6 6 8 12 14 11 5 4 3 2 1 1 3 4 4 5 5 6 7 7 8 8 9 9 9 9 9 10 11 12 12 12 11 11 11
4 4 3 2 3 5 4 0 2 3 3 3 5 8 7 2 3 3 3 2 2 3 4 4 5 6 7 7 7 8 8 8 9 9 9 9 10 11 11 11 11 10 10 10
4 3 4 4 4 7 6 3 3 2 3 3 3 6 5 4 4 2 4 3 3 3 4 4 5 6 6 6 7 8 8 8 7 8 9 10 10 10 10 10 9 9 9 9
8 6 6 5 5 7 3 4 4 4 3 4 4 4 4 3 3 4 4 4 4 3 4 4 5 6 6 6 7 8 8 6 7 8 9 9 9 8 8 10 9 8 8 9
7 8 5 7 8 4 3 5 5 3 5 5 3 3 2 4 4 5 5 5 4 4 4 4 5 6 6 6 6 7 5 5 7 9 9 9 9 9 8 8 8 6 6 6
4 5 4 5 7 7 8 7 5 4 5 4 4 4 4 5 5 6 6 6 5 4 4 4 5 6 5 5 6 6 5 6 8 9 8 7 8 8 7 6 6 6 5 5
4 5 4 5 6 6 4 3 3 3 3 3 3 3 5 6 6 6 6 7 6 5 4 5 5 6 6 5 5 5 6 7 8 8 7 7 7 7 7 6 5 5 3 4
3 5 5 5 3 3 6 5 4 4 4 4 3 2 3 5 6 7 7 6 6 6 5 6 6 6 6 6 5 5 5 6 8 7 6 5 5 5 5 5 6 9 7 9
Wind_Direction
149 162 188 185 174 152 151 149 176 236 343 329 282 283 284 280 270 268 272 275 278 276 270 261 251 249 244 238 230 229 224 222 213 207 209 211 216 215 213 214 211 206 202 196
139 204 181 154 145 124 122 128 163 307 359 349 307 286 275 270 254 255 269 280 286 291 296 290 274 261 246 239 234 231 228 226 216 213 211 211 212 215 215 212 209 206 202 196
151 152 150 148 157 155 148 156 175 242 354 32 337 303 295 316 331 310 300 297 304 297 299 306 305 287 272 258 244 238 231 229 223 218 210 200 196 201 203 207 211 207 202 198
108 107 146 151 162 155 182 163 143 120 56 334 27 320 296 327 330 344 348 345 335 327 318 317 322 318 303 283 272 254 245 237 231 219 211 205 210 215 214 212 213 206 200 198
133 142 144 158 155 138 131 101 100 99 107 342 356 217 285 337 354 350 341 344 345 343 345 343 338 327 322 318 311 293 273 257 245 228 216 214 219 221 216 209 208 206 201 197
87 85 107 120 100 115 119 84 70 60 72 276 220 192 281 287 291 313 324 339 346 351 358 359 355 353 347 343 338 328 310 285 265 244 229 221 222 220 210 204 207 206 200 197
81 59 71 103 92 85 108 105 50 356 1 252 181 210 253 267 274 278 305 327 340 351 358 356 354 350 344 341 338 333 323 307 292 265 245 231 227 221 216 212 211 205 202 202
128 146 162 119 138 148 152 143 166 202 237 289 209 239 257 267 287 288 302 319 341 350 349 345 338 333 328 325 325 324 318 308 299 280 259 246 238 229 223 217 211 207 208 207
134 123 63 96 109 125 126 127 131 120 106 286 268 276 301 270 296 333 340 346 345 340 338 334 331 328 320 316 314 311 308 303 297 287 273 259 243 230 225 216 209 206 199 181
119 110 107 114 85 52 129 135 109 130 165 261 292 272 254 273 313 336 343 339 330 331 333 333 330 324 318 312 308 307 302 296 293 291 280 269 254 238 224 203 195 182 161 146
98 113 113 111 150 157 120 110 107 110 150 172 283 281 224 214 273 320 316 313 313 319 323 327 327 323 319 318 315 312 311 307 304 300 293 281 268 218 163 162 157 147 138 139
106 109 117 110 359 180 150 155 145 151 193 177 206 271 268 227 266 288 297 303 311 319 323 326 325 325 327 325 323 322 321 317 310 302 301 308 89 106 112 119 127 133 135 137
122 107 102 45 350 92 168 164 152 130 126 161 200 265 295 309 306 299 301 310 320 328 332 332 331 331 332 331 331 336 338 332 326 332 35 67 84 99 105 113 121 126 128 128
112 112 156 183 211 175 188 185 166 146 169 202 230 262 289 301 306 309 315 320 327 331 334 335 335 334 335 338 343 347 350 351 3 33 60 67 74 87 96 101 105 110 114 116
100 125 174 216 204 172 195 191 187 195 195 206 238 246 273 285 294 300 306 321 330 336 340 342 342 341 342 347 354 358 4 11 26 50 62 68 75 84 89 91 93 96 100 103
95 122 133 312 256 213 231 221 205 213 219 236 260 277 272 279 286 291 306 323 327 334 339 342 344 346 349 355 2 9 17 23 40 59 64 68 77 81 84 87 90 91 93 96
119 128 125 291 303 325 260 225 202 200 206 205 236 249 272 289 294 298 307 317 322 332 340 343 346 350 353 2 16 26 28 39 51 61 66 71 78 83 86 89 90 91 93 94
129 124 133 277 356 251 245 224 185 201 228 218 236 257 270 276 293 276 239 304 325 339 344 346 349 356 4 18 32 42 46 53 60 65 69 75 82 86 89 91 92 93 93 94
132 137 154 198 275 281 290 240 169 184 258 230 235 257 270 293 308 260 159 86 3 354 356 359 8 17 28 35 44 53 53 56 62 67 70 77 86 90 90 90 90 91 93 90
106 116 155 194 253 257 262 317 155 139 274 254 221 257 275 303 302 276 131 99 65 39 24 24 28 40 46 43 55 66 61 60 62 67 70 75 81 87 89 90 90 88 88 88
158 172 202 214 243 265 255 241 132 186 233 290 261 266 264 228 227 151 125 113 96 67 51 49 51 49 45 51 67 72 67 63 64 72 74 76 79 83 87 87 87 89 90 89
182 186 196 193 217 255 248 147 187 238 280 290 281 269 255 218 153 139 141 135 121 95 74 70 70 61 50 59 78 79 70 66 72 76 76 74 74 78 82 85 82 83 91 90
197 195 189 202 222 245 232 220 248 256 271 277 265 263 221 195 188 168 157 148 136 126 107 93 91 80 64 63 80 88 78 78 82 81 77 76 74 71 74 83 85 79 79 87
237 190 193 245 261 263 265 265 268 253 253 270 262 248 201 201 187 170 160 155 147 139 127 115 103 96 84 76 79 85 90 90 91 86 80 77 78 73 65 67 75 83 85 89
231 178 203 246 274 302 303 293 291 285 277 278 273 228 209 192 180 171 165 161 154 146 135 125 117 112 107 101 93 91 97 103 98 90 86 81 78 82 75 69 75 89 94 124
208 187 194 232 253 256 280 304 317 300 289 276 252 232 196 182 174 164 163 159 152 148 142 133 128 125 122 116 108 102 107 113 112 103 93 90 89 83 81 80 70 75 83 82
Height
1469 1475 1476 1479 1482 1486 1490 1494 1496 1495 1493 1493 1492 1491 1483 1479 1480 1479 1477 1476 1476 1476 1477 1479 1480 1481 1482 1484 1485 1487 1488 1490 1492 1493 1494 1495 1497 1499 1502 1505 1507 1510 1512 1514
1471 1473 1474 1477 1481 1485 1490 1494 1495 1495 1494 1494 1495 1489 1479 1474 1474 1474 1473 1472 1472 1471 1471 1472 1473 1473 1474 1476 1478 1479 1481 1483 1484 1486 1487 1488 1490 1492 1495 1498 1500 1503 1506 1508
1467 1472 1472 1476 1481 1485 1489 1493 1495 1496 1496 1497 1497 1486 1478 1472 1472 1471 1471 1470 1469 1468 1467 1467 1467 1467 1467 1468 1470 1472 1474 1476 1478 1479 1481 1481 1483 1484 1487 1489 1492 1496 1499 1502
1469 1471 1472 1476 1480 1483 1489 1490 1493 1496 1500 1504 1503 1501 1481 1476 1474 1471 1471 1469 1468 1466 1465 1464 1463 1463 1463 1464 1464 1465 1467 1468 1470 1472 1473 1474 1474 1475 1477 1481 1484 1488 1491 1494
1471 1472 1473 1477 1480 1482 1489 1491 1495 1499 1502 1506 1507 1505 1486 1480 1474 1473 1471 1469 1467 1465 1464 1463 1462 1462 1461 1461 1461 1461 1461 1462 1463 1465 1465 1466 1467 1468 1471 1474 1476 1479 1482 1485
1472 1473 1475 1477 1481 1483 1489 1495 1501 1506 1508 1508 1506 1508 1492 1481 1476 1475 1471 1469 1466 1465 1463 1462 1461 1460 1459 1458 1458 1457 1456 1457 1457 1458 1458 1459 1460 1461 1463 1465 1467 1470 1473 1476
1475 1476 1477 1479 1484 1488 1490 1498 1506 1507 1514 1510 1506 1508 1493 1478 1476 1474 1472 1469 1466 1465 1463 1461 1459 1457 1456 1455 1454 1453 1452 1452 1452 1452 1452 1452 1453 1454 1455 1457 1459 1461 1464 1466
1477 1482 1479 1480 1483 1488 1491 1494 1504 1504 1505 1508 1507 1505 1487 1476 1474 1472 1471 1469 1466 1464 1462 1460 1458 1456 1453 1451 1449 1448 1446 1446 1446 1446 1446 1446 1446 1447 1448 1449 1451 1453 1455 1458
1477 1482 1481 1480 1482 1486 1493 1498 1500 1510 1514 1514 1504 1497 1484 1472 1472 1471 1469 1467 1465 1463 1461 1458 1455 1453 1450 1447 1445 1443 1441 1440 1439 1439 1439 1439 1440 1440 1441 1442 1444 1445 1448 1450
1473 1483 1482 1482 1483 1487 1490 1496 1505 1512 1510 1502 1496 1494 1486 1474 1471 1470 1468 1466 1463 1461 1458 1455 1452 1449 1446 1443 1440 1438 1436 1434 1433 1433 1432 1433 1433 1434 1434 1435 1437 1438 1440 1443
1472 1481 1484 1484 1487 1490 1493 1498 1503 1512 1512 1510 1498 1485 1475 1473 1471 1471 1469 1466 1464 1460 1457 1453 1449 1445 1442 1438 1435 1432 1430 1428 1427 1426 1426 1426 1427 1427 1428 1429 1430 1432 1434 1436
1473 1481 1487 1488 1488 1487 1489 1494 1501 1508 1513 1515 1516 1494 1470 1470 1470 1469 1467 1464 1461 1458 1455 1451 1447 1442 1438 1434 1431 1428 1425 1423 1421 1420 1420 1420 1421 1422 1423 1424 1425 1426 1428 1431
1472 1483 1493 1493 1495 1492 1490 1493 1495 1501 1509 1517 1514 1490 1469 1469 1468 1466 1464 1461 1458 1455 1452 1448 1444 1440 1436 1432 1428 1425 1422 1419 1417 1416 1415 1416 1417 1418 1419 1420 1422 1423 1425 1428
1470 1480 1488 1490 1486 1489 1490 1491 1493 1498 1507 1509 1503 1488 1472 1468 1466 1462 1460 1458 1455 1452 1449 1445 1441 1437 1434 1430 1427 1423 1421 1418 1415 1414 1413 1414 1414 1416 1417 1418 1420 1422 1424 1426
1470 1480 1482 1483 1482 1484 1485 1487 1490 1492 1495 1498 1489 1485 1471 1465 1463 1460 1457 1455 1452 1449 1446 1443 1439 1436 1433 1430 1426 1423 1420 1418 1415 1413 1412 1413 1413 1414 1415 1417 1418 1420 1423 1425
1472 1479 1481 1482 1480 1482 1483 1482 1484 1486 1486 1485 1482 1476 1462 1460 1459 1457 1455 1452 1450 1447 1444 1441 1438 1436 1433 1430 1427 1424 1421 1419 1417 1414 1413 1413 1414 1414 1415 1416 1418 1420 1423 1425
1474 1479 1483 1485 1481 1479 1481 1473 1475 1477 1475 1476 1476 1468 1459 1458 1456 1454 1452 1450 1448 1446 1443 1440 1438 1436 1433 1431 1428 1426 1423 1421 1419 1417 1416 1416 1415 1416 1416 1418 1419 1422 1425 1428
1475 1479 1482 1482 1481 1484 1470 1461 1463 1467 1466 1465 1463 1459 1457 1455 1453 1451 1450 1448 1446 1444 1442 1440 1438 1436 1434 1432 1430 1428 1426 1424 1422 1420 1419 1419 1419 1419 1420 1421 1423 1426 1429 1432
1471 1476 1479 1480 1480 1477 1465 1459 1460 1463 1461 1457 1458 1456 1453 1452 1451 1448 1448 1447 1445 1443 1442 1440 1438 1436 1435 1433 1432 1430 1428 1427 1425 1424 1424 1423 1424 1424 1424 1426 1428 1430 1433 1436
1472 1474 1478 1478 1477 1475 1462 1456 1456 1459 1459 1453 1453 1453 1451 1451 1452 1449 1447 1445 1444 1443 1441 1440 1438 1437 1436 1435 1433 1432 1431 1430 1429 1428 1428 1428 1429 1429 1430 1432 1433 1436 1439 1441
1472 1474 1474 1474 1474 1469 1458 1455 1456 1462 1457 1452 1451 1450 1449 1449 1449 1447 1445 1444 1444 1442 1441 1440 1439 1438 1437 1436 1436 1435 1434 1434 1433 1433 1433 1434 1434 1435 1437 1438 1440 1442 1444 1445
1466 1468 1468 1469 1471 1468 1453 1454 1456 1454 1450 1449 1448 1447 1446 1445 1444 1444 1444 1444 1443 1442 1442 1441 1440 1439 1438 1438 1438 1438 1437 1438 1438 1438 1439 1439 1440 1441 1443 1444 1445 1447 1448 1449
1462 1462 1462 1462 1460 1452 1451 1451 1450 1449 1448 1447 1446 1444 1443 1442 1442 1442 1442 1443 1443 1443 1442 1442 1442 1441 1441 1441 1441 1441 1442 1442 1443 1444 1444 1445 1446 1447 1448 1448 1449 1450 1451 1451
1456 1455 1457 1457 1452 1449 1448 1448 1447 1446 1445 1444 1443 1441 1440 1440 1440 1440 1441 1442 1443 1443 1443 1443 1443 1443 1443 1444 1445 1445 1446 1447 1448 1448 1449 1449 1450 1451 1451 1452 1452 1452 1452 1452
1452 1453 1454 1453 1449 1446 1445 1445 1445 1444 1442 1441 1440 1438 1438 1437 1437 1438 1439 1440 1442 1443 1443 1444 1445 1445 1446 1447 1448 1448 1449 1451 1451 1452 1452 1453 1453 1453 1454 1454 1454 1454 1453 1453
1449 1450 1451 1450 1447 1447 1444 1443 1442 1441 1439 1438 1437 1435 1435 1435 1435 1436 1438 1439 1441 1442 1443 1445 1446 1447 1448 1449 1450 1451 1452 1453 1454 1455 1455 1455 1455 1455 1455 1455 1455 1454 1454 1453